�������l�o���
Date,Time,MP-1(��Sv/h),MP-2(��Sv/h),MP-3(��Sv/h),MP-4(��Sv/h),MP-5(��Sv/h),MP-6(��Sv/h),MP-7(��Sv/h),MP-8(��Sv/h),����,����(m/s),���J
2016/10/12,00:00,1.153,1.923,1.366,2.107,1.474,0.599,1.068,0.982,�k��,3.8,��
2016/10/12,00:10,1.151,1.916,1.366,2.107,1.474,0.601,1.066,0.983,���k��,3.2,��
2016/10/12,00:20,1.152,1.920,1.366,2.106,1.473,0.600,1.065,0.982,���k��,2.7,��
2016/10/12,00:30,1.152,1.919,1.366,2.107,1.474,0.600,1.067,0.982,���k��,2.7,��
2016/10/12,00:40,1.151,1.918,1.364,2.109,1.474,0.598,1.065,0.981,���k��,2.8,��
2016/10/12,00:50,1.149,1.920,1.365,2.108,1.473,0.599,1.065,0.981,���k��,2.3,��
2016/10/12,01:00,1.150,1.920,1.363,2.111,1.474,0.600,1.067,0.982,���k��,2.7,��
2016/10/12,01:10,1.151,1.919,1.366,2.106,1.472,0.599,1.067,0.982,��,2.0,��
2016/10/12,01:20,1.151,1.918,1.365,2.106,1.473,0.599,1.065,0.983,���k��,2.5,��
2016/10/12,01:30,1.153,1.918,1.364,2.108,1.475,0.599,1.067,0.982,���k��,2.4,��
2016/10/12,01:40,1.152,1.919,1.364,2.107,1.474,0.598,1.064,0.983,���k��,2.3,��
2016/10/12,01:50,1.151,1.916,1.364,2.107,1.475,0.599,1.067,0.981,���k��,2.9,��
2016/10/12,02:00,1.148,1.918,1.364,2.108,1.476,0.599,1.066,0.981,���k��,2.3,��
2016/10/12,02:10,1.149,1.918,1.365,2.107,1.474,0.599,1.065,0.986,���k��,1.6,��
2016/10/12,02:20,1.150,1.915,1.366,2.106,1.475,0.600,1.066,0.983,���쐼,1.1,��
2016/10/12,02:30,1.151,1.915,1.364,2.105,1.474,0.597,1.064,0.982,��쐼,1.6,��
2016/10/12,02:40,1.152,1.916,1.362,2.107,1.474,0.598,1.064,0.980,���쐼,1.5,��
2016/10/12,02:50,1.150,1.916,1.364,2.106,1.474,0.601,1.068,0.981,��,3.0,��
2016/10/12,03:00,1.150,1.917,1.363,2.106,1.473,0.598,1.064,0.983,��,3.3,��
2016/10/12,03:10,1.150,1.918,1.365,2.109,1.473,0.600,1.065,0.983,���k��,2.9,��
2016/10/12,03:20,1.150,1.918,1.364,2.107,1.472,0.597,1.065,0.982,�k��,2.9,��
2016/10/12,03:30,1.149,1.917,1.362,2.103,1.474,0.598,1.066,0.983,�k��,4.1,��
2016/10/12,03:40,1.152,1.918,1.364,2.105,1.472,0.599,1.066,0.982,�k��,4.4,��
2016/10/12,03:50,1.148,1.920,1.364,2.109,1.473,0.599,1.066,0.981,�k��,6.1,��
2016/10/12,04:00,1.148,1.916,1.363,2.107,1.470,0.599,1.065,0.981,�k��,6.1,��
2016/10/12,04:10,1.151,1.919,1.362,2.107,1.474,0.598,1.066,0.983,�k��,7.2,��
2016/10/12,04:20,1.149,1.916,1.363,2.106,1.472,0.599,1.065,0.981,�k��,7.4,��
2016/10/12,04:30,1.149,1.919,1.366,2.107,1.473,0.600,1.065,0.981,���k��,5.8,��
2016/10/12,04:40,1.149,1.918,1.364,2.109,1.473,0.599,1.064,0.981,���k��,4.4,��
2016/10/12,04:50,1.150,1.918,1.364,2.107,1.473,0.600,1.064,0.983,���k��,3.3,��
2016/10/12,05:00,1.150,1.916,1.362,2.107,1.474,0.598,1.064,0.982,�k��,5.2,��
2016/10/12,05:10,1.146,1.918,1.365,2.107,1.469,0.599,1.064,0.983,���k��,6.9,��
2016/10/12,05:20,1.152,1.915,1.363,2.108,1.472,0.599,1.067,0.981,���k��,5.8,��
2016/10/12,05:30,1.149,1.917,1.364,2.108,1.473,0.598,1.064,0.980,���k��,5.6,��
2016/10/12,05:40,1.149,1.917,1.363,2.106,1.472,0.598,1.065,0.982,���k��,6.6,��
2016/10/12,05:50,1.150,1.917,1.363,2.109,1.472,0.599,1.066,0.981,��,5.2,��
2016/10/12,06:00,1.150,1.917,1.366,2.110,1.471,0.599,1.065,0.982,��,4.4,��
2016/10/12,06:10,1.149,1.918,1.363,2.106,1.471,0.598,1.064,0.982,��,3.8,��
2016/10/12,06:20,1.150,1.918,1.364,2.105,1.471,0.598,1.064,0.983,��,2.6,��
2016/10/12,06:30,1.148,1.915,1.363,2.106,1.471,0.598,1.065,0.980,��,3.3,��
2016/10/12,06:40,1.149,1.917,1.363,2.108,1.471,0.600,1.064,0.982,��,3.1,��
2016/10/12,06:50,1.151,1.917,1.364,2.107,1.473,0.598,1.065,0.983,���쐼,3.1,��
2016/10/12,07:00,1.150,1.918,1.363,2.108,1.475,0.599,1.065,0.983,���쐼,2.9,��
2016/10/12,07:10,1.149,1.916,1.360,2.109,1.471,0.599,1.066,0.981,��,2.8,��
2016/10/12,07:20,1.150,1.918,1.350,2.108,1.473,0.600,1.067,0.982,���k��,3.1,��
2016/10/12,07:30,1.152,1.919,1.353,2.106,1.471,0.599,1.068,0.982,���k��,3.0,��
2016/10/12,07:40,1.149,1.917,1.349,2.108,1.468,0.599,1.067,0.982,�k��,2.3,��
2016/10/12,07:50,1.152,1.917,1.349,2.108,1.473,0.599,1.068,0.985,���k��,1.4,��
2016/10/12,08:00,1.152,1.923,1.351,2.108,1.474,0.600,1.068,0.983,�k��,1.9,��
2016/10/12,08:10,1.152,1.915,1.351,2.110,1.477,0.600,1.067,0.985,�k��,2.4,��
2016/10/12,08:20,1.152,1.914,1.350,2.110,1.475,0.599,1.065,0.983,�k��,2.6,��
2016/10/12,08:30,1.153,1.920,1.352,2.111,1.475,0.599,1.064,0.983,�k��,3.3,��
2016/10/12,08:40,1.152,1.918,1.349,2.111,1.477,0.600,1.065,0.984,�k��,4.4,��
2016/10/12,08:50,1.150,1.919,1.347,2.112,1.479,0.601,1.065,0.983,�k��,5.2,��
2016/10/12,09:00,1.153,1.922,1.357,2.113,1.477,0.599,1.067,0.986,���k��,3.4,��
2016/10/12,09:10,1.153,1.924,1.360,2.115,1.476,0.600,1.068,0.986,�k��,4.2,��
2016/10/12,09:20,1.147,1.920,1.360,2.116,1.473,0.601,1.068,0.985,�k��,3.2,��
2016/10/12,09:30,1.149,1.921,1.358,2.114,1.478,0.600,1.066,0.986,���k��,3.4,��
2016/10/12,09:40,1.154,1.922,1.357,2.118,1.478,0.602,1.069,0.984,�k��,4.2,��
2016/10/12,09:50,1.156,1.915,1.356,2.116,1.477,0.600,1.069,0.982,�k�k��,3.3,��
2016/10/12,10:00,1.155,1.918,1.360,2.117,1.479,0.598,1.068,0.981,�k�k��,3.4,��
2016/10/12,10:10,1.156,1.921,1.365,2.117,1.478,0.599,1.065,0.982,�k��,3.4,��
2016/10/12,10:20,1.156,1.915,1.363,2.115,1.480,0.599,1.067,0.982,�k��,2.6,��
2016/10/12,10:30,1.156,1.915,1.363,2.121,1.478,0.599,1.067,0.982,�k,2.9,��
2016/10/12,10:40,1.157,1.917,1.362,2.120,1.480,0.599,1.070,0.982,�k�k��,2.1,��
2016/10/12,10:50,1.157,1.919,1.361,2.120,1.481,0.599,1.070,0.981,�k��,0.8,��
2016/10/12,11:00,1.158,1.926,1.366,2.118,1.481,0.602,1.070,0.982,�k��,1.4,��
2016/10/12,11:10,1.159,1.930,1.365,2.117,1.483,0.599,1.070,0.984,�k��,2.5,��
2016/10/12,11:20,1.159,1.925,1.363,2.117,1.482,0.600,1.068,0.983,���k��,3.9,��
2016/10/12,11:30,1.157,1.928,1.365,2.119,1.486,0.599,1.069,0.984,���k��,4.1,��
2016/10/12,11:40,1.158,1.927,1.366,2.119,1.485,0.600,1.068,0.982,���k��,3.2,��
2016/10/12,11:50,1.160,1.928,1.365,2.119,1.486,0.600,1.070,0.982,���k��,2.7,��
2016/10/12,12:00,1.155,1.926,1.365,2.117,1.484,0.599,1.070,0.982,��,2.8,��
2016/10/12,12:10,1.158,1.925,1.365,2.120,1.486,0.600,1.068,0.982,��,3.0,��
2016/10/12,12:20,1.159,1.931,1.368,2.117,1.487,0.602,1.070,0.983,���쓌,1.8,��
2016/10/12,12:30,1.159,1.931,1.365,2.119,1.486,0.603,1.070,0.981,���쓌,2.6,��
2016/10/12,12:40,1.161,1.930,1.368,2.120,1.484,0.603,1.070,0.982,�k��,2.3,��
2016/10/12,12:50,1.159,1.930,1.369,2.121,1.488,0.602,1.068,0.984,�k�k��,2.1,��
2016/10/12,13:00,1.160,1.926,1.368,2.122,1.487,0.603,1.071,0.983,�k��,2.2,��
2016/10/12,13:10,1.161,1.930,1.366,2.119,1.486,0.601,1.070,0.982,�k��,3.4,��
2016/10/12,13:20,1.162,1.928,1.368,2.121,1.490,0.601,1.071,0.983,�k��,4.2,��
2016/10/12,13:30,1.160,1.928,1.368,2.122,1.490,0.601,1.071,0.983,�k��,3.8,��
2016/10/12,13:40,1.161,1.933,1.367,2.122,1.489,0.602,1.071,0.983,�k�k��,2.9,��
2016/10/12,13:50,1.161,1.929,1.368,2.121,1.490,0.601,1.069,0.984,�k�k��,3.4,��
2016/10/12,14:00,1.161,1.934,1.367,2.118,1.489,0.602,1.071,0.984,�k�k��,2.7,��
2016/10/12,14:10,1.158,1.933,1.367,2.120,1.485,0.602,1.070,0.981,�k�k��,2.3,��
2016/10/12,14:20,1.161,1.936,1.368,2.124,1.487,0.603,1.071,0.983,�k��,1.8,��
2016/10/12,14:30,1.159,1.931,1.362,2.122,1.489,0.603,1.072,0.983,�k,2.2,��
2016/10/12,14:40,1.161,1.935,1.355,2.118,1.487,0.604,1.070,0.984,�k�k��,1.0,��
2016/10/12,14:50,1.162,1.934,1.361,2.123,1.488,0.605,1.070,0.984,���k��,3.5,��
2016/10/12,15:00,1.163,1.932,1.370,2.123,1.485,0.606,1.070,0.985,��,3.9,��
2016/10/12,15:10,1.160,1.931,1.368,2.124,1.488,0.606,1.069,0.985,�k�k��,2.8,��
2016/10/12,15:20,1.160,1.931,1.370,2.123,1.490,0.602,1.069,0.985,�k,3.1,��
2016/10/12,15:30,1.162,1.926,1.370,2.123,1.489,0.604,1.068,0.985,�k,3.2,��
2016/10/12,15:40,1.160,1.931,1.369,2.123,1.487,0.606,1.069,0.984,�k��,3.2,��
2016/10/12,15:50,1.162,1.931,1.368,2.126,1.487,0.604,1.070,0.985,�k��,5.2,��
2016/10/12,16:00,1.161,1.932,1.369,2.125,1.488,0.604,1.068,0.983,�k�k��,4.2,��
2016/10/12,16:10,1.159,1.935,1.369,2.124,1.488,0.605,1.068,0.986,�k��,5.8,��
2016/10/12,16:20,1.159,1.935,1.369,2.125,1.486,0.602,1.068,0.984,�k�k��,5.2,��
2016/10/12,16:30,1.159,1.933,1.368,2.125,1.485,0.602,1.068,0.984,�k�k��,6.0,��
2016/10/12,16:40,1.164,1.940,1.371,2.123,1.489,0.603,1.068,0.985,�k�k��,4.5,��
2016/10/12,16:50,1.164,1.938,1.370,2.125,1.488,0.602,1.068,0.984,�k,6.3,��
2016/10/12,17:00,1.162,1.940,1.371,2.123,1.488,0.605,1.069,0.987,�k�k��,6.0,��
2016/10/12,17:10,1.162,1.939,1.370,2.123,1.491,0.603,1.070,0.987,�k�k��,5.2,��
2016/10/12,17:20,1.163,1.936,1.373,2.125,1.489,0.603,1.067,0.985,�k�k��,6.0,��
2016/10/12,17:30,1.161,1.938,1.371,2.123,1.493,0.604,1.066,0.987,�k,5.0,��
2016/10/12,17:40,1.163,1.940,1.369,2.121,1.490,0.602,1.067,0.985,�k,6.4,��
2016/10/12,17:50,1.163,1.938,1.370,2.119,1.490,0.602,1.067,0.988,�k,6.6,��
2016/10/12,18:00,1.161,1.935,1.369,2.123,1.493,0.603,1.068,0.988,�k,6.3,��
2016/10/12,18:10,1.161,1.936,1.369,2.120,1.489,0.602,1.067,0.987,�k�k��,6.9,��
2016/10/12,18:20,1.162,1.938,1.369,2.123,1.490,0.603,1.068,0.986,�k,5.8,��
2016/10/12,18:30,1.161,1.939,1.372,2.120,1.492,0.603,1.069,0.987,�k,6.1,��
2016/10/12,18:40,1.160,1.938,1.370,2.123,1.492,0.602,1.068,0.989,�k�k��,6.3,��
2016/10/12,18:50,1.161,1.939,1.371,2.120,1.489,0.602,1.068,0.987,�k�k��,5.8,��
2016/10/12,19:00,1.161,1.937,1.370,2.120,1.491,0.600,1.067,0.988,�k�k��,6.3,��
2016/10/12,19:10,1.159,1.938,1.370,2.121,1.492,0.601,1.066,0.986,�k,6.3,��
2016/10/12,19:20,1.160,1.939,1.370,2.123,1.491,0.601,1.065,0.985,�k,6.3,��
2016/10/12,19:30,1.161,1.934,1.370,2.119,1.489,0.600,1.067,0.987,�k,6.0,��
2016/10/12,19:40,1.158,1.937,1.368,2.122,1.489,0.601,1.069,0.985,�k,6.3,��
2016/10/12,19:50,1.161,1.937,1.368,2.122,1.488,0.600,1.066,0.985,�k,5.0,��
2016/10/12,20:00,1.158,1.935,1.368,2.123,1.488,0.599,1.067,0.987,�k�k��,5.5,��
2016/10/12,20:10,1.159,1.931,1.368,2.119,1.489,0.601,1.066,0.985,�k�k��,6.3,��
2016/10/12,20:20,1.158,1.935,1.369,2.122,1.489,0.601,1.068,0.986,�k,7.1,��
2016/10/12,20:30,1.158,1.936,1.369,2.120,1.491,0.600,1.068,0.986,�k,7.2,��
2016/10/12,20:40,1.159,1.934,1.367,2.119,1.488,0.598,1.070,0.984,�k,6.9,��
2016/10/12,20:50,1.157,1.936,1.367,2.121,1.487,0.600,1.068,0.985,�k,6.6,��
2016/10/12,21:00,1.157,1.934,1.367,2.117,1.488,0.598,1.069,0.984,�k,6.3,��
2016/10/12,21:10,1.157,1.931,1.367,2.120,1.489,0.600,1.070,0.983,�k,6.6,��
2016/10/12,21:20,1.158,1.936,1.366,2.119,1.488,0.600,1.068,0.985,�k,6.3,��
2016/10/12,21:30,1.157,1.933,1.365,2.120,1.489,0.599,1.068,0.985,�k�k��,4.9,��
2016/10/12,21:40,1.157,1.933,1.366,2.121,1.487,0.598,1.067,0.984,�k,5.8,��
2016/10/12,21:50,1.157,1.934,1.364,2.118,1.487,0.600,1.068,0.985,�k�k��,6.0,��
2016/10/12,22:00,1.157,1.932,1.369,2.117,1.487,0.598,1.067,0.985,�k,4.7,��
2016/10/12,22:10,1.155,1.933,1.364,2.120,1.487,0.598,1.066,0.983,�k�k��,4.9,��
2016/10/12,22:20,1.157,1.932,1.364,2.119,1.489,0.598,1.068,0.985,�k�k��,5.5,��
2016/10/12,22:30,1.156,1.931,1.368,2.120,1.485,0.600,1.065,0.983,�k�k��,5.0,��
2016/10/12,22:40,1.156,1.934,1.365,2.119,1.488,0.599,1.067,0.984,�k,5.3,��
2016/10/12,22:50,1.157,1.930,1.364,2.121,1.487,0.599,1.067,0.984,�k,5.6,��
2016/10/12,23:00,1.156,1.937,1.364,2.118,1.487,0.599,1.071,0.983,�k,5.6,��
2016/10/12,23:10,1.156,1.932,1.366,2.119,1.488,0.600,1.068,0.983,�k�k��,5.5,��
2016/10/12,23:20,1.156,1.931,1.363,2.118,1.487,0.598,1.069,0.985,�k�k��,4.1,��
2016/10/12,23:30,1.157,1.933,1.366,2.117,1.486,0.598,1.066,0.983,�k,4.9,��
2016/10/12,23:40,1.157,1.930,1.365,2.118,1.489,0.599,1.066,0.983,�k,5.3,��
2016/10/12,23:50,1.157,1.932,1.365,2.120,1.487,0.600,1.067,0.984,�k�k��,4.9,��
